This demonstration page uses our WeatherBlox Daily Observations layout. Learn more.

38.89511, -77.03637

Hourly Observations for February 9, 2015

Temp ( °F °C ) Dew Point ( °F °C ) Humidity (%) Winds ( mph kmh ) Pressure ( in mb ) Visibility ( mi km ) Precip ( " mm )
12:52 am 00:52 Cloudy 45 7 28 -2 53 53 NNE 10 17 29.8 1009 10 16.09344 0 0
1:52 am 01:52 Cloudy 45 7 30 -1 57 57 NNE 10 17 29.8 1009 10 16.09344 0 0
2:52 am 02:52 Cloudy 43 6 32 0 66 66 NNE 10 17 29.83 1010 10 16.09344 0 0
3:52 am 03:52 Cloudy 43 6 32 0 66 66 NE 13 20 29.83 1010 9 14.484096 0 0
4:52 am 04:52 Cloudy with Haze 41 5 34 1 76 76 NE 9 15 29.83 1010 6 9.656064 0 0
5:10 am 05:10 Cloudy with Haze 39 4 34 1 81 81 NE 9 15 29.83 1010 6 9.656064 0 0
5:52 am 05:52 Cloudy 41 5 34 1 76 76 NE 9 15 29.85 1011 7 11.265408 0 0
6:52 am 06:52 Cloudy with Haze 39 4 34 1 81 81 ENE 7 11 29.85 1011 6 9.656064 0 0
7:04 am 07:04 Cloudy 39 4 34 1 81 81 NE 6 9 29.88 1012 7 11.265408 0 0
7:44 am 07:44 Cloudy with Haze 39 4 36 2 87 87 NE 8 13 29.88 1012 4 6.437376 0 0
7:52 am 07:52 Cloudy with Haze 39 4 36 2 87 87 ENE 9 15 29.88 1012 3 4.828032 0 0
8:16 am 08:16 Cloudy with Haze 39 4 36 2 87 87 NE 9 15 29.88 1012 2.5 4.02336 0 0
8:22 am 08:22 Cloudy with Haze 39 4 36 2 87 87 NNE 9 15 29.88 1012 2 3.218688 0 0
8:52 am 08:52 Cloudy with Mist and Fog 39 4 36 2 87 87 ENE 8 13 29.88 1012 2 3.218688 0 0
9:00 am 09:00 Cloudy with Haze 39 4 36 2 87 87 NE 9 15 29.88 1012 1.75 2.816352 0 0
9:52 am 09:52 Cloudy with Mist and Fog 39 4 36 2 87 87 NE 9 15 29.91 1013 1.75 2.816352 0 0
10:52 am 10:52 Cloudy with Light Drizzle 39 4 36 2 87 87 NE 9 15 29.91 1013 1.5 2.414016 0.001 0.001
11:48 am 11:48 Cloudy with Haze 39 4 34 1 81 81 NE 8 13 29.91 1013 4 6.437376 0 0
11:52 am 11:52 Cloudy with Haze 39 4 34 1 81 81 NE 9 15 29.91 1013 4 6.437376 0.001 0.001
11:58 am 11:58 Cloudy with Haze 39 4 34 1 81 81 NE 10 17 29.91 1013 4 6.437376 0 0
12:52 pm 12:52 Cloudy with Haze 37 3 34 1 87 87 NNE 13 20 29.91 1013 5 8.04672 0 0
1:52 pm 13:52 Cloudy with Haze 37 3 32 0 81 81 NE 12 19 29.88 1012 5 8.04672 0 0
2:52 pm 14:52 Cloudy with Haze 37 3 32 0 81 81 NNE 9 15 29.88 1012 6 9.656064 0 0
3:52 pm 15:52 Cloudy with Haze 37 3 30 -1 75 75 NE 10 17 29.91 1013 6 9.656064 0 0
4:52 pm 16:52 Cloudy with Light Rain 36 2 30 -1 81 81 NE 14 22 29.91 1013 6 9.656064 0.001 0.001
5:52 pm 17:52 Cloudy 37 3 30 -1 75 75 ENE 12 19 29.94 1014 8 12.874752 0.001 0.001
6:52 pm 18:52 Cloudy with Haze 37 3 30 -1 75 75 NE 12 19 29.94 1014 6 9.656064 0 0
7:52 pm 19:52 Cloudy with Haze 36 2 30 -1 81 81 NE 10 17 29.97 1015 6 9.656064 0 0
8:10 pm 20:10 Cloudy with Haze 36 2 30 -1 81 81 NE 12 19 29.97 1015 6 9.656064 0 0
8:52 pm 20:52 Cloudy with Haze 36 2 30 -1 81 81 NNE 10 17 29.97 1015 5 8.04672 0 0
9:29 pm 21:29 Cloudy with Light Rain 36 2 30 -1 81 81 NNE 12 19 29.97 1015 5 8.04672 0.001 0.001
9:46 pm 21:46 Cloudy with Light Rain 36 2 30 -1 81 81 NNE 10 17 29.97 1015 2.5 4.02336 0.03 0.762
9:52 pm 21:52 Cloudy with Light Rain 36 2 30 -1 81 81 NE 9 15 29.97 1015 2.5 4.02336 0.04 1.016
9:55 pm 21:55 Cloudy with Light Rain 36 2 30 -1 81 81 NE 12 19 29.97 1015 2.5 4.02336 0.001 0.001
10:05 pm 22:05 Cloudy with Light Rain 36 2 30 -1 81 81 NNE 10 17 29.97 1015 3 4.828032 0.01 0.254
10:09 pm 22:09 Cloudy with Light Rain 36 2 30 -1 81 81 NNE 12 19 29.97 1015 3 4.828032 0.02 0.508
10:52 pm 22:52 Cloudy with Light Drizzle 36 2 28 -2 75 75 NE 13 20 29.97 1015 5 8.04672 0.03 0.762
11:36 pm 23:36 Cloudy with Light Drizzle 36 2 28 -2 75 75 NE 13 20 29.97 1015 5 8.04672 0 0
11:48 pm 23:48 Cloudy with Light Rain 34 1 28 -2 81 81 NNE 10 17 29.97 1015 5 8.04672 0 0
11:52 pm 23:52 Cloudy with Light Rain 34 1 28 -2 81 81 NNE 13 20 29.97 1015 5 8.04672 0.001 0.001

Powered by AerisWeather